Starlink 11710

operational
NORAD ID: 64244 Int'l Des: 2025-119 Owner: SPXS Country: US Constellation: starlink
LEOCIRCULAR

Über Starlink 11710

Beschreibung wird geladen...

Live-Position

3D-Globus wird geladen...

Nächste Überflüge

Höhenverlauf

Altitude vs Time

uPlot chart will show altitude changes over time

Zweizeiliger Elementsatz

1 64244U 25119M 25260.17944736 .00174074 00000-0 13295-2 0 9999
2 64244 42.9990 175.1925 0001510 266.3565 93.7130 15.70881612 17959
Epoch: 17. Sept. 2025 • Age: 46 hours

Aktueller Status

Höhe 354.0 km
Geschwindigkeit 7.70 km/s
Subsatellitenpunkt 0.71°N, 135.01°E
Startdatum 3. Juni 2025
Alter 0.2 years
Typ internet

Technische Details

Klassifizierung Payload
Masse 960.00 kg
Trockenmasse 910.00 kg
Gesamtmasse 960.00 kg
Länge 0.30 m
Durchmesser 4.10 m
Spannweite 29.00 m
Form Box + pan
Hersteller SPXS
Bus-Typ Starlink V2MD
Phasenstatus In Orbit
Besitzer/Staat SPXS/US

Große Konstellationen

Loading constellations...